GW0490 Weather Reports


Display with metric or nautical units.
time (UTC)temp
F
wind
direction
speed
MPH
gust
MPH
rain 1hr
in
rain 24hr
in
rain mn
in
humidity
%
barometer
mb
20260502130526 42 15 0.0 0.0 0.00 0.01 0.01 99 1009.8
20260502123509 41 15 0.0 0.0 0.00 0.01 0.01 99 1009.9
20260502123005 41 15 0.0 0.0 0.00 0.01 0.01 99 1010.1
20260502122502 41 15 0.0 0.0 0.00 0.01 0.01 99 1009.9
20260502121959 41 15 0.0 0.0 0.00 0.01 0.01 99 1010.1
20260502121456 40 15 0.0 0.0 0.00 0.01 0.01 99 1010.1
20260502120954 40 15 0.0 0.0 0.00 0.01 0.01 99 1010.0
20260502120450 40 15 0.0 2.0 0.00 0.01 0.01 99 1010.1
20260502115445 40 15 0.0 1.0 0.00 0.01 0.01 99 1010.0
20260502114940 40 15 0.0 0.0 0.00 0.01 0.01 99 1010.1
20260502114437 40 15 0.0 0.0 0.00 0.01 0.01 99 1009.9
20260502113935 40 15 0.0 0.0 0.00 0.01 0.01 99 1010.2
20260502113432 40 15 0.0 0.0 0.00 0.01 0.01 99 1010.0
20260502112931 40 15 0.0 0.0 0.00 0.01 0.01 99 1010.1
20260502112428 40 15 0.0 0.0 0.00 0.01 0.01 99 1010.2
20260502111925 40 15 0.0 0.0 0.00 0.01 0.01 99 1010.1
20260502111422 40 15 0.0 0.0 0.00 0.01 0.01 99 1010.1
20260502110919 40 15 0.0 0.0 0.07 0.01 0.01 99 1010.1
20260502110417 40 15 0.0 0.0 0.07 0.01 0.01 98 1010.2
20260502105914 40 15 0.0 0.0 0.00 0.00 0.00 97 1010.1
20260502105412 39 15 0.0 1.0 0.00 0.00 0.00 96 1010.1
20260502104910 39 15 0.0 0.0 0.00 0.00 0.00 96 1010.3
20260502104406 39 14 0.0 1.0 0.00 0.00 0.00 96 1010.1
20260502103904 39 15 0.0 0.0 0.00 0.00 0.00 97 1010.1
20260502103401 39 14 0.0 1.0 0.00 0.00 0.00 95 1010.0
20260502102858 39 14 0.0 1.0 0.00 0.00 0.00 94 1010.0
20260502102355 39 15 0.0 1.0 0.00 0.00 0.00 95 1010.0
20260502101852 39 15 0.0 1.0 0.00 0.00 0.00 94 1009.8
20260502101350 39 15 0.0 0.0 0.00 0.00 0.00 95 1009.7
20260502100848 38 15 0.0 1.0 0.00 0.00 0.00 95 1009.7
20260502100347 38 14 1.0 1.0 0.00 0.00 0.00 96 1009.9
20260502091321 37 15 0.0 1.0 0.00 0.00 0.00 96 1008.9
20260502090819 37 15 0.0 0.0 0.00 0.00 0.00 96 1008.7
20260502090315 37 15 0.0 0.0 0.00 0.00 0.00 96 1009.0
20260502071205 39 28 1.0 3.0 0.00 0.00 0.00 87 1009.7
20260502070703 38 46 1.0 1.0 0.00 0.00 0.00 86 1009.9
20260502070200 38 46 1.0 1.0 0.00 0.00 0.00 89 1009.9
20260502065659 37 36 1.0 1.0 0.00 0.00 0.00 89 1009.8
20260502065156 37 26 0.0 2.0 0.00 0.00 0.00 91 1009.7
20260502064655 37 39 1.0 1.0 0.00 0.00 0.00 90 1009.6
20260502064151 37 39 1.0 1.0 0.00 0.00 0.00 91 1009.4
20260502063649 36 39 0.0 1.0 0.00 0.00 0.00 90 1009.3
20260502063147 36 39 0.0 0.0 0.00 0.00 0.00 91 1009.1
20260502062644 36 39 1.0 1.0 0.00 0.00 0.00 90 1009.1
20260502062141 36 39 0.0 1.0 0.00 0.00 0.00 90 1008.9
20260502061639 35 39 1.0 1.0 0.00 0.00 0.00 92 1009.1
20260502061137 35 39 1.0 1.0 0.00 0.00 0.00 92 1008.8
20260502060636 35 39 1.0 1.0 0.00 0.00 0.00 93 1009.0
20260502060133 35 39 0.0 0.0 0.00 0.00 0.00 92 1008.8
20260502055631 35 39 0.0 0.0 0.00 0.00 0.00 93 1008.7
20260502055129 35 39 0.0 0.0 0.00 0.00 0.00 93 1008.8
20260502054628 34 39 0.0 0.0 0.00 0.00 0.00 93 1008.6
20260502054125 34 39 0.0 0.0 0.00 0.00 0.00 92 1008.7
20260502053622 34 39 0.0 0.0 0.00 0.00 0.00 93 1009.0
20260502053119 34 39 0.0 0.0 0.00 0.00 0.00 94 1008.6
20260502052617 34 39 0.0 1.0 0.00 0.00 0.00 94 1008.5
20260502052115 34 39 1.0 1.0 0.00 0.00 0.00 93 1008.8
20260502051613 33 39 0.0 1.0 0.00 0.00 0.00 94 1008.7
20260502051111 33 39 0.0 0.0 0.00 0.00 0.00 94 1008.8
20260502050607 33 39 0.0 0.0 0.00 0.00 0.00 93 1008.7
20260502050104 32 39 0.0 0.0 0.00 0.00 0.00 95 1008.8
20260502045600 32 39 0.0 0.0 0.00 0.00 0.00 95 1008.9
20260502045058 32 39 0.0 0.0 0.00 0.00 0.00 95 1008.9
20260502044554 32 39 0.0 1.0 0.00 0.00 0.00 95 1009.0
20260502044051 32 39 0.0 1.0 0.00 0.00 0.00 95 1008.6
20260502043548 32 39 1.0 1.0 0.00 0.00 0.00 94 1008.8
20260502043044 32 39 0.0 0.0 0.00 0.00 0.00 93 1008.8
20260502042539 33 39 1.0 1.0 0.00 0.00 0.00 93 1008.6
20260502042037 33 39 0.0 1.0 0.00 0.00 0.00 93 1008.6
20260502041535 33 39 0.0 0.0 0.00 0.00 0.00 92 1008.6
20260502041031 33 39 0.0 1.0 0.00 0.00 0.00 91 1008.7
20260502040528 33 39 0.0 0.0 0.00 0.00 0.00 90 1008.5
20260502040025 33 39 0.0 0.0 0.00 0.00 0.00 91 1008.6
20260502035521 33 39 0.0 0.0 0.00 0.00 0.00 92 1008.7
20260502035019 33 39 1.0 1.0 0.00 0.00 0.00 91 1008.6
20260502034516 34 39 0.0 0.0 0.00 0.00 0.00 90 1008.4
20260502034015 34 39 0.0 0.0 0.00 0.00 0.00 89 1008.4
20260502033513 34 39 0.0 0.0 0.00 0.00 0.00 89 1008.5
20260502033010 34 39 0.0 0.0 0.00 0.00 0.00 89 1008.5
20260502032505 34 39 0.0 0.0 0.00 0.00 0.00 89 1008.4
20260502032003 34 39 0.0 1.0 0.00 0.00 0.00 89 1008.4
20260502031500 35 39 1.0 1.0 0.00 0.00 0.00 88 1008.3
20260502030958 35 39 0.0 1.0 0.00 0.00 0.00 86 1008.4
20260502030456 35 39 0.0 0.0 0.00 0.00 0.00 87 1008.4
20260502025954 35 39 0.0 1.0 0.00 0.00 0.00 85 1008.4
20260502025451 36 39 0.0 1.0 0.00 0.00 0.00 85 1008.3
20260502024949 37 39 1.0 1.0 0.00 0.00 0.00 84 1008.5
20260502024447 37 39 0.0 0.0 0.00 0.00 0.00 84 1008.2
20260502023945 37 39 0.0 0.0 0.00 0.00 0.00 83 1008.4
20260502023442 37 39 0.0 0.0 0.00 0.00 0.00 84 1008.4
20260502022939 37 40 0.0 0.0 0.00 0.00 0.00 83 1008.3
20260502022435 37 40 0.0 0.0 0.00 0.00 0.00 84 1008.2
20260502021932 37 39 0.0 0.0 0.00 0.00 0.00 83 1008.3
20260502021430 37 39 0.0 0.0 0.00 0.00 0.00 83 1008.3
20260502020927 37 39 0.0 1.0 0.00 0.00 0.00 82 1008.4
20260502020425 38 39 0.0 1.0 0.00 0.00 0.00 82 1008.3
20260502015921 38 39 0.0 1.0 0.00 0.00 0.00 80 1008.2
20260502015419 39 39 0.0 0.0 0.00 0.00 0.00 78 1008.3
20260502014915 39 39 0.0 0.0 0.00 0.00 0.00 80 1008.4
20260502014412 39 39 0.0 0.0 0.00 0.00 0.00 76 1008.3
20260502013909 39 39 0.0 0.0 0.00 0.00 0.00 76 1008.3
20260502013404 40 39 0.0 0.0 0.00 0.00 0.00 76 1008.3
20260502012901 40 39 0.0 1.0 0.00 0.00 0.00 72 1008.1
20260502012359 41 39 0.0 1.0 0.00 0.00 0.00 71 1008.2
20260502011856 41 39 0.0 0.0 0.00 0.00 0.00 69 1008.2
20260502011352 41 39 0.0 1.0 0.00 0.00 0.00 71 1008.1
20260502010849 41 39 0.0 1.0 0.00 0.00 0.00 70 1008.1
20260502010346 42 39 1.0 1.0 0.00 0.00 0.00 72 1008.0
20260502005843 42 39 0.0 0.0 0.00 0.00 0.00 64 1008.0
20260502005341 43 39 0.0 0.0 0.00 0.00 0.00 64 1007.9
20260502004838 43 39 0.0 0.0 0.00 0.00 0.00 63 1007.7
20260502004334 44 39 1.0 1.0 0.00 0.00 0.00 62 1007.5
20260502003832 45 40 0.0 0.0 0.00 0.00 0.00 58 1007.6
20260502003328 45 40 0.0 0.0 0.00 0.00 0.00 54 1007.5
20260502002825 46 40 0.0 0.0 0.00 0.00 0.00 54 1007.3
20260502002322 47 40 0.0 0.0 0.00 0.00 0.00 59 1007.3
20260502001819 47 40 0.0 0.0 0.00 0.00 0.00 57 1007.2
20260502001317 48 40 0.0 0.0 0.00 0.00 0.00 58 1007.0
20260502000814 49 40 0.0 0.0 0.00 0.00 0.00 57 1007.0
20260502000312 49 40 0.0 1.0 0.00 0.00 0.00 48 1006.8
20260501235808 50 40 1.0 1.0 0.00 0.00 0.00 48 1007.1
20260501235305 50 40 0.0 0.0 0.00 0.00 0.00 48 1007.1
20260501234759 51 40 1.0 1.0 0.00 0.00 0.00 42 1006.9
20260501234257 51 42 0.0 2.0 0.00 0.00 0.00 44 1006.8
20260501233755 51 29 2.0 2.0 0.00 0.00 0.00 43 1006.7
20260501233252 51 37 1.0 1.0 0.00 0.00 0.00 42 1006.7
20260501232747 52 36 0.0 0.0 0.00 0.00 0.00 43 1006.6
20260501232245 52 36 0.0 1.0 0.00 0.00 0.00 41 1006.4
20260501231743 53 36 0.0 1.0 0.00 0.00 0.00 41 1006.5
20260501231241 53 36 1.0 1.0 0.00 0.00 0.00 39 1006.3
20260501230739 53 12 1.0 2.0 0.00 0.00 0.00 39 1006.0
20260501230237 53 27 1.0 7.0 0.00 0.00 0.00 39 1006.1
20260501225734 54 32 1.0 2.0 0.00 0.00 0.00 37 1006.2
20260501225231 54 36 1.0 2.0 0.00 0.00 0.00 37 1006.2
20260501224727 54 347 3.0 5.0 0.00 0.00 0.00 38 1006.1
20260501224226 54 16 0.0 2.0 0.00 0.00 0.00 38 1006.0
20260501223721 55 17 1.0 2.0 0.00 0.00 0.00 37 1006.2
20260501223218 55 2 2.0 5.0 0.00 0.00 0.00 37 1005.9
20260501222714 55 20 1.0 2.0 0.00 0.00 0.00 37 1006.1
20260501222211 55 34 2.0 6.0 0.00 0.00 0.00 35 1005.9
20260501221708 55 41 1.0 3.0 0.00 0.00 0.00 35 1005.8
20260501221205 56 12 0.0 2.0 0.00 0.00 0.00 35 1005.9
20260501220703 56 11 2.0 3.0 0.00 0.00 0.00 34 1005.8
20260501220200 55 24 3.0 9.0 0.00 0.00 0.00 35 1005.8
20260501215657 55 17 1.0 5.0 0.00 0.00 0.00 33 1005.7
20260501215152 56 332 5.0 7.0 0.00 0.00 0.00 35 1005.7
20260501214647 56 50 1.0 2.0 0.00 0.00 0.00 35 1005.5
20260501214142 56 35 4.0 6.0 0.00 0.00 0.00 33 1005.4
20260501213640 56 43 1.0 3.0 0.00 0.00 0.00 33 1005.5
20260501213135 56 20 3.0 3.0 0.00 0.00 0.00 36 1005.4
20260501212633 56 81 2.0 5.0 0.00 0.00 0.00 33 1005.5
20260501212129 56 19 2.0 5.0 0.00 0.00 0.00 35 1005.3
20260501211626 56 13 2.0 3.0 0.00 0.00 0.00 34 1005.3
20260501211124 57 65 6.0 8.0 0.00 0.00 0.00 34 1005.4
20260501210620 57 56 4.0 6.0 0.00 0.00 0.00 34 1005.1
20260501210117 57 358 3.0 7.0 0.00 0.00 0.00 38 1005.4
20260501205613 57 30 1.0 2.0 0.00 0.00 0.00 36 1005.2
20260501205111 58 21 3.0 7.0 0.00 0.00 0.00 36 1005.2
20260501204607 59 324 4.0 5.0 0.00 0.00 0.00 35 1005.1
20260501204103 59 335 2.0 3.0 0.00 0.00 0.00 34 1005.2
20260501203600 57 48 1.0 2.0 0.00 0.00 0.00 36 1005.0
20260501203058 57 19 3.0 5.0 0.00 0.00 0.00 35 1005.2
20260501202554 58 93 4.0 5.0 0.00 0.00 0.00 33 1005.3
20260501202051 58 32 1.0 9.0 0.00 0.00 0.00 36 1005.1
20260501201548 59 341 2.0 3.0 0.00 0.00 0.00 36 1005.3
20260501201044 58 17 2.0 5.0 0.00 0.00 0.00 35 1005.3
20260501200541 58 349 6.0 9.0 0.00 0.00 0.00 34 1005.1
20260501200039 59 59 1.0 5.0 0.00 0.00 0.00 36 1005.3
20260501195536 59 11 2.0 8.0 0.00 0.00 0.00 37 1005.0
20260501195031 59 247 5.0 8.0 0.00 0.00 0.00 35 1005.1
20260501194527 58 325 3.0 8.0 0.00 0.00 0.00 38 1005.1
20260501194023 59 83 4.0 9.0 0.00 0.00 0.00 36 1004.9
20260501193521 59 15 1.0 3.0 0.00 0.00 0.00 37 1005.1
20260501193020 59 351 5.0 15.0 0.00 0.00 0.00 36 1005.0
20260501192516 58 35 2.0 7.0 0.00 0.00 0.00 37 1004.9
20260501192014 58 19 5.0 9.0 0.00 0.00 0.00 36 1004.9
20260501191510 59 228 4.0 11.0 0.00 0.00 0.00 36 1005.0
20260501191008 59 36 1.0 3.0 0.00 0.00 0.00 37 1004.8
20260501190503 59 226 5.0 8.0 0.00 0.00 0.00 37 1004.8
20260501185959 59 26 2.0 3.0 0.00 0.00 0.00 41 1004.8
20260501185455 58 33 4.0 6.0 0.00 0.00 0.00 37 1004.8
20260501184951 58 79 2.0 6.0 0.00 0.00 0.00 40 1004.9
20260501184448 59 34 2.0 11.0 0.00 0.00 0.00 39 1004.9
20260501183942 59 336 3.0 5.0 0.00 0.00 0.00 42 1004.6
20260501183440 58 145 2.0 6.0 0.00 0.00 0.00 41 1004.7
20260501182936 57 120 4.0 7.0 0.00 0.00 0.00 41 1005.0
20260501182433 58 19 4.0 6.0 0.00 0.00 0.00 42 1004.7
20260501181930 58 26 1.0 8.0 0.00 0.00 0.00 40 1004.7
20260501181427 57 32 1.0 5.0 0.00 0.00 0.00 42 1004.8
20260501180924 57 266 3.0 5.0 0.00 0.00 0.00 41 1004.9
20260501180421 57 325 3.0 5.0 0.00 0.00 0.00 43 1004.6
20260501175917 57 25 1.0 7.0 0.00 0.00 0.00 42 1005.0
20260501175415 57 34 3.0 8.0 0.00 0.00 0.00 43 1004.6
20260501174911 56 53 2.0 2.0 0.00 0.00 0.00 44 1004.8
20260501174409 57 270 4.0 6.0 0.00 0.00 0.00 43 1004.7
20260501173906 57 357 2.0 5.0 0.00 0.00 0.00 44 1004.7
20260501173404 57 59 6.0 8.0 0.00 0.00 0.00 45 1004.6
20260501172859 56 0 3.0 3.0 0.00 0.00 0.00 48 1004.8
20260501172354 57 19 4.0 6.0 0.00 0.00 0.00 46 1004.8
20260501171850 55 304 3.0 3.0 0.00 0.00 0.00 49 1004.8
20260501171347 56 332 5.0 7.0 0.00 0.00 0.00 47 1004.8
20260501170843 56 9 3.0 3.0 0.00 0.00 0.00 51 1004.8
20260501170340 55 359 2.0 8.0 0.00 0.00 0.00 52 1004.7
20260501165838 55 26 2.0 3.0 0.00 0.00 0.00 49 1004.8
20260501165336 55 346 2.0 2.0 0.00 0.00 0.00 52 1004.8
20260501164833 54 57 1.0 5.0 0.00 0.00 0.00 52 1004.9
20260501164331 55 17 2.0 5.0 0.00 0.00 0.00 50 1005.0
20260501163827 55 20 1.0 3.0 0.00 0.00 0.00 50 1004.8
20260501163324 54 37 0.0 5.0 0.00 0.00 0.00 53 1004.9
20260501162821 54 18 2.0 3.0 0.00 0.00 0.00 53 1004.9
20260501162317 55 26 2.0 2.0 0.00 0.00 0.00 52 1005.1
20260501161814 55 30 3.0 5.0 0.00 0.00 0.00 52 1005.0
20260501161311 54 16 1.0 5.0 0.00 0.00 0.00 53 1005.1
20260501160808 55 343 3.0 5.0 0.00 0.00 0.00 54 1005.3
20260501160304 54 24 2.0 2.0 0.00 0.00 0.00 52 1005.1
20260501155802 54 69 3.0 3.0 0.00 0.00 0.00 55 1005.2
20260501155258 52 8 2.0 5.0 0.00 0.00 0.00 55 1005.2
20260501154755 52 30 3.0 7.0 0.00 0.00 0.00 57 1005.3
20260501154252 52 0 3.0 9.0 0.00 0.00 0.00 56 1005.5
20260501153750 53 29 3.0 6.0 0.00 0.00 0.00 56 1005.3
20260501153247 53 19 2.0 6.0 0.00 0.00 0.00 60 1005.3
20260501152743 53 61 4.0 9.0 0.00 0.00 0.00 57 1005.2
20260501152240 53 38 4.0 8.0 0.00 0.00 0.00 56 1004.9
20260501151737 53 25 3.0 6.0 0.00 0.00 0.00 58 1005.0
20260501151233 52 42 3.0 7.0 0.00 0.00 0.00 57 1005.0
20260501150730 52 36 3.0 7.0 0.00 0.00 0.00 57 1005.0
20260501150226 53 39 2.0 7.0 0.00 0.00 0.00 59 1005.1
20260501145723 53 84 3.0 5.0 0.00 0.00 0.00 58 1005.0
20260501145221 53 3 2.0 3.0 0.00 0.00 0.00 57 1005.1